Voltar ao catálogo

EYCORE-1

AtivoCiênciaSSO
NORAD 69011·PAYLOAD·🇸🇪 Sweden

Lançado May 3, 2026 de Vandenberg Space Force Base

Loading…

Próximas Passagens (próximas 24 horas)

TLE

AtualizadoSource: Space-Track

Época: Sep 14, 2026, 10:15 UTC

1 69011U 26100AH  26257.42764303  .00003541  00000-0  16134-3 0  9998
2 69011  97.3918 153.6818 0006370  84.0265 276.1697 15.21295235 20374

Acompanhe EYCORE-1 em tempo real com AllMySat

Download on the App Store